Date String (YYYY-MM-DD hh:mm:ss) UTC,Instrument flags,Ambient pressure (hPa),Sample flow (lpm),Bypass flow (lpm),Sample temperature (°C),Ambient temperature (°C),ASC tube jacket temperature (°C),LED temperature (°C),Box temperature (°C),Sample RH (%),Span deviation,Mass concentration (μg/m³),Mass concentration (μg/m³),Mass concentration (μg/m³)
DateTimeUTC,F1_M11,P_M11,Q1_M11,Q2_M11,T1_M11,T2_M11,T3_M11,T4_M11,T5_M11,U1_M11,ZSPAN_M11,X0_M11,X2_M11,X1_M11
2022-03-19 08:00:00,,0826.5,5.01,0.00,23.1,22.1,00.0,32.1,24.8,08.2,0000.0,0006.06,0003.03,0001.88
2022-03-19 08:01:00,,0826.5,5.00,0.00,23.1,22.1,00.0,32.1,24.9,08.0,0000.0,0005.97,0003.02,0001.91
2022-03-19 08:02:00,,0826.5,5.00,0.00,23.1,22.1,00.0,32.1,24.9,07.8,0000.0,0005.70,0003.00,0001.95
2022-03-19 08:03:00,,0826.5,5.00,0.00,23.1,22.1,00.0,32.1,24.9,08.0,0000.0,0005.80,0003.07,0002.01
2022-03-19 08:04:00,,0826.5,5.01,0.00,23.1,22.1,00.0,32.1,24.9,08.0,0000.0,0005.95,0003.15,0002.08
2022-03-19 08:05:00,,0826.5,4.99,0.00,23.1,22.2,00.0,32.1,24.9,07.8,0000.0,0006.17,0003.22,0002.16
2022-03-19 08:06:00,,0826.5,5.00,0.00,23.1,22.2,00.0,32.1,24.9,08.0,0000.0,0006.22,0003.27,0002.25
2022-03-19 08:07:00,,0826.5,5.01,0.00,23.1,22.2,00.0,32.1,24.9,07.8,0000.0,0006.30,0003.34,0002.33
2022-03-19 08:08:00,,0826.5,5.00,0.00,23.1,22.2,00.0,32.1,24.9,07.8,0000.0,0006.52,0003.40,0002.39
2022-03-19 08:09:00,,0826.5,5.00,0.00,23.1,22.2,00.0,32.1,24.9,07.8,0000.0,0006.43,0003.37,0002.41
2022-03-19 08:10:00,,0826.5,5.00,0.00,23.1,22.2,00.0,32.1,24.9,07.8,0000.0,0006.30,0003.38,0002.47
2022-03-19 08:11:00,,0826.5,5.00,0.00,23.1,22.2,00.0,32.1,24.9,07.9,0000.0,0006.38,0003.43,0002.51
2022-03-19 08:12:00,,0826.5,5.00,0.00,23.1,22.1,00.0,32.1,24.9,08.0,0000.0,0006.43,0003.47,0002.55
2022-03-19 08:13:00,,0826.5,5.00,0.00,23.1,22.1,00.0,32.1,24.9,07.9,0000.0,0006.42,0003.48,0002.56
2022-03-19 08:14:00,,0826.5,5.00,0.00,23.1,22.1,00.0,32.1,24.9,08.0,0000.0,0006.07,0003.45,0002.57
2022-03-19 08:15:00,,0826.5,5.01,0.00,23.1,22.1,00.0,32.1,24.9,08.0,0000.0,0005.89,0003.43,0002.56
2022-03-19 08:16:00,,0826.5,5.00,0.00,23.1,22.1,00.0,32.1,24.9,08.1,0000.0,0005.85,0003.42,0002.56
2022-03-19 08:17:00,,0826.5,5.01,0.00,23.1,22.1,00.0,32.1,24.9,08.1,0000.0,0005.81,0003.40,0002.54
2022-03-19 08:18:00,,0826.5,5.00,0.00,23.1,22.1,00.0,32.1,24.9,08.2,0000.0,0005.84,0003.40,0002.53
2022-03-19 08:19:00,,0826.5,4.98,0.00,23.1,22.1,00.0,32.1,24.8,08.2,0000.0,0005.73,0003.38,0002.52
2022-03-19 08:20:00,,0826.4,4.99,0.00,23.0,22.1,00.0,32.1,24.8,08.2,0000.0,0005.72,0003.39,0002.50
2022-03-19 08:21:00,,0826.4,5.00,0.00,23.0,22.1,00.0,32.0,24.8,08.0,0000.0,0005.69,0003.36,0002.45
2022-03-19 08:22:00,,0826.5,5.01,0.00,23.0,22.1,00.0,32.0,24.8,07.9,0000.0,0005.55,0003.31,0002.41
2022-03-19 08:23:00,,0826.5,5.00,0.00,23.0,22.0,00.0,32.0,24.8,08.0,0000.0,0005.67,0003.31,0002.37
2022-03-19 08:24:00,,0826.5,4.99,0.00,23.0,22.0,00.0,32.0,24.8,08.0,0000.0,0005.90,0003.34,0002.34
2022-03-19 08:25:00,,0826.5,5.00,0.00,23.0,22.0,00.0,32.0,24.7,08.0,0000.0,0006.64,0003.39,0002.32
2022-03-19 08:26:00,,0826.5,5.00,0.00,23.0,22.0,00.0,32.0,24.7,08.1,0000.0,0006.75,0003.39,0002.31
2022-03-19 08:27:00,,0826.4,5.01,0.00,23.0,22.0,00.0,32.0,24.7,08.2,0000.0,0006.74,0003.38,0002.28
2022-03-19 08:28:00,,0826.3,5.01,0.00,22.9,22.0,00.0,32.0,24.7,08.1,0000.0,0006.68,0003.36,0002.29
2022-03-19 08:29:00,,0826.2,5.01,0.00,22.9,21.9,00.0,32.0,24.7,08.2,0000.0,0006.60,0003.34,0002.29
2022-03-19 08:30:00,,0826.4,4.99,0.00,22.9,21.9,00.0,32.0,24.7,08.1,0000.0,0006.59,0003.32,0002.29
2022-03-19 08:31:00,,0826.4,5.01,0.00,22.9,21.9,00.0,32.0,24.7,08.3,0000.0,0006.78,0003.35,0002.30
2022-03-19 08:32:00,,0826.5,4.99,0.00,22.9,21.9,00.0,32.0,24.7,08.4,0000.0,0006.94,0003.40,0002.32
2022-03-19 08:33:00,,0826.5,5.00,0.00,22.9,21.9,00.0,31.9,24.6,08.5,0000.0,0006.64,0003.35,0002.33
2022-03-19 08:34:00,,0826.4,5.00,0.00,22.9,21.9,00.0,31.9,24.6,08.4,0000.0,0006.64,0003.34,0002.32
2022-03-19 08:35:00,,0826.4,5.01,0.00,22.9,21.9,00.0,31.9,24.6,08.4,0000.0,0006.69,0003.34,0002.32
2022-03-19 08:36:00,,0826.4,5.00,0.00,22.9,21.9,00.0,31.9,24.6,08.5,0000.0,0006.21,0003.29,0002.32
2022-03-19 08:37:00,,0826.3,5.00,0.00,22.9,21.9,00.0,31.9,24.6,08.4,0000.0,0006.03,0003.27,0002.34
2022-03-19 08:38:00,,0826.2,4.99,0.00,22.9,21.9,00.0,31.9,24.6,08.4,0000.0,0006.20,0003.30,0002.36
2022-03-19 08:39:00,,0826.3,5.00,0.00,22.9,21.9,00.0,31.9,24.6,08.3,0000.0,0006.60,0003.35,0002.36
2022-03-19 08:40:00,,0826.3,5.00,0.00,22.9,21.9,00.0,31.9,24.6,08.4,0000.0,0006.94,0003.35,0002.36
2022-03-19 08:41:00,,0826.3,5.00,0.00,22.9,21.9,00.0,31.9,24.6,08.5,0000.0,0007.06,0003.40,0002.36
2022-03-19 08:42:00,,0826.3,5.00,0.00,22.9,21.9,00.0,31.9,24.6,08.5,0000.0,0006.91,0003.37,0002.36
2022-03-19 08:43:00,,0826.3,5.00,0.00,22.9,21.9,00.0,31.9,24.6,08.5,0000.0,0006.80,0003.34,0002.36
2022-03-19 08:44:00,,0826.3,5.00,0.00,22.8,21.9,00.0,31.9,24.5,08.5,0000.0,0006.92,0003.36,0002.35
2022-03-19 08:45:00,,0826.2,5.00,0.00,22.8,21.9,00.0,31.9,24.6,08.5,0000.0,0006.77,0003.35,0002.37
2022-03-19 08:46:00,,0826.2,5.00,0.00,22.8,21.9,00.0,31.9,24.6,08.5,0000.0,0006.73,0003.32,0002.37
2022-03-19 08:47:00,,0826.2,5.01,0.00,22.8,21.9,00.0,31.9,24.6,08.5,0000.0,0007.05,0003.38,0002.38
2022-03-19 08:48:00,,0826.2,5.00,0.00,22.8,21.9,00.0,31.8,24.6,08.3,0000.0,0007.36,0003.42,0002.38
2022-03-19 08:49:00,,0826.3,5.00,0.00,22.8,21.9,00.0,31.8,24.6,08.3,0000.0,0007.53,0003.43,0002.38
2022-03-19 08:50:00,,0826.2,5.00,0.00,22.8,21.8,00.0,31.8,24.5,08.4,0000.0,0007.60,0003.41,0002.39
2022-03-19 08:51:00,,0826.2,5.00,0.00,22.8,21.8,00.0,31.8,24.5,08.4,0000.0,0007.49,0003.44,0002.40
2022-03-19 08:52:00,,0826.2,5.01,0.00,22.8,21.8,00.0,31.8,24.5,08.4,0000.0,0007.53,0003.47,0002.43
2022-03-19 08:53:00,,0826.3,5.00,0.00,22.8,21.8,00.0,31.8,24.5,08.3,0000.0,0007.55,0003.47,0002.46
2022-03-19 08:54:00,,0826.2,5.00,0.00,22.7,21.8,00.0,31.8,24.5,07.8,0000.0,0007.44,0003.42,0002.43
2022-03-19 08:55:00,,0826.2,5.00,0.00,22.8,21.8,00.0,31.8,24.5,08.1,0000.0,0007.35,0003.39,0002.41
2022-03-19 08:56:00,,0826.2,5.01,0.00,22.8,21.8,00.0,31.8,24.5,08.0,0000.0,0007.34,0003.40,0002.42
2022-03-19 08:57:00,,0826.2,5.00,0.00,22.7,21.8,00.0,31.8,24.5,08.0,0000.0,0007.32,0003.41,0002.42
2022-03-19 08:58:00,,0826.2,5.00,0.00,22.7,21.8,00.0,31.8,24.4,08.3,0000.0,0007.00,0003.40,0002.42
2022-03-19 08:59:00,,0826.2,5.01,0.00,22.7,21.8,00.0,31.8,24.5,08.2,0000.0,0006.96,0003.38,0002.43
